Total_Precipitation_Accumulation
0.06 0.10 0.22 0.21 0.21 0.20 0.19 0.19 0.20 0.22 0.28 0.33 0.30 0.26 0.26 0.27 0.27 0.24 0.29 0.31 0.34 0.37 0.35 0.36 0.38 0.40 0.42 0.41 0.30 0.16 0.10 0.09 0.07 0.06 0.07 0.08 0.10 0.12 0.11 0.11 0.13 0.14 0.17
0.05 0.09 0.20 0.21 0.22 0.21 0.21 0.20 0.19 0.22 0.28 0.35 0.35 0.34 0.34 0.34 0.32 0.30 0.30 0.32 0.33 0.34 0.34 0.33 0.29 0.24 0.21 0.18 0.14 0.10 0.08 0.05 0.03 0.02 0.02 0.04 0.06 0.08 0.07 0.08 0.10 0.15 0.18
0.06 0.11 0.19 0.22 0.23 0.22 0.21 0.20 0.19 0.23 0.29 0.34 0.38 0.42 0.39 0.36 0.35 0.36 0.38 0.34 0.36 0.33 0.34 0.27 0.21 0.16 0.14 0.11 0.09 0.08 0.07 0.04 0.03 0.02 0.02 0.04 0.05 0.08 0.08 0.08 0.12 0.18 0.21
0.07 0.11 0.16 0.23 0.25 0.24 0.23 0.23 0.22 0.25 0.30 0.35 0.40 0.42 0.40 0.40 0.42 0.40 0.38 0.33 0.32 0.27 0.25 0.19 0.14 0.12 0.10 0.08 0.07 0.07 0.06 0.06 0.05 0.03 0.04 0.05 0.06 0.10 0.12 0.13 0.15 0.17 0.17
0.12 0.14 0.22 0.29 0.30 0.28 0.25 0.26 0.27 0.27 0.32 0.37 0.45 0.49 0.47 0.47 0.47 0.42 0.35 0.29 0.25 0.21 0.20 0.16 0.10 0.09 0.07 0.05 0.05 0.05 0.06 0.06 0.04 0.03 0.02 0.03 0.06 0.11 0.13 0.14 0.16 0.17 0.16
0.19 0.22 0.30 0.37 0.39 0.36 0.31 0.28 0.30 0.32 0.34 0.37 0.46 0.51 0.50 0.49 0.50 0.43 0.36 0.26 0.20 0.17 0.17 0.14 0.11 0.10 0.08 0.06 0.06 0.06 0.07 0.06 0.03 0.02 0.02 0.03 0.06 0.11 0.12 0.14 0.16 0.19 0.21
0.31 0.37 0.40 0.44 0.45 0.45 0.42 0.36 0.32 0.34 0.36 0.40 0.47 0.48 0.51 0.49 0.50 0.50 0.41 0.25 0.17 0.16 0.18 0.16 0.14 0.13 0.11 0.09 0.08 0.09 0.08 0.05 0.03 0.02 0.03 0.04 0.06 0.11 0.14 0.16 0.17 0.19 0.22
0.46 0.55 0.57 0.58 0.52 0.48 0.46 0.47 0.42 0.40 0.41 0.46 0.53 0.51 0.52 0.52 0.50 0.51 0.44 0.30 0.20 0.18 0.19 0.18 0.17 0.16 0.14 0.12 0.11 0.11 0.10 0.06 0.03 0.02 0.03 0.04 0.06 0.10 0.14 0.17 0.18 0.18 0.19
0.76 0.80 0.74 0.69 0.58 0.54 0.48 0.47 0.47 0.46 0.46 0.51 0.56 0.53 0.51 0.49 0.49 0.48 0.42 0.31 0.26 0.23 0.23 0.22 0.20 0.18 0.16 0.14 0.13 0.10 0.08 0.05 0.03 0.02 0.02 0.03 0.06 0.12 0.16 0.19 0.22 0.22 0.22
1.05 1.08 0.99 0.86 0.77 0.67 0.58 0.47 0.45 0.45 0.44 0.46 0.46 0.40 0.38 0.41 0.45 0.41 0.33 0.27 0.24 0.23 0.22 0.22 0.20 0.19 0.17 0.14 0.12 0.09 0.07 0.06 0.04 0.03 0.04 0.04 0.08 0.16 0.23 0.25 0.25 0.23 0.23
1.27 1.26 1.25 1.12 0.95 0.83 0.68 0.52 0.47 0.45 0.42 0.41 0.38 0.31 0.30 0.35 0.39 0.33 0.24 0.20 0.24 0.25 0.23 0.21 0.20 0.20 0.17 0.12 0.10 0.08 0.07 0.05 0.05 0.04 0.04 0.06 0.13 0.22 0.24 0.23 0.21 0.22 0.23
1.32 1.28 1.31 1.23 1.14 1.02 0.82 0.62 0.57 0.52 0.45 0.39 0.34 0.32 0.30 0.31 0.35 0.30 0.26 0.22 0.23 0.25 0.24 0.25 0.24 0.23 0.20 0.14 0.12 0.11 0.09 0.07 0.06 0.06 0.06 0.10 0.16 0.21 0.21 0.20 0.20 0.21 0.24
1.44 1.46 1.42 1.36 1.24 1.20 1.08 0.79 0.60 0.55 0.53 0.49 0.39 0.35 0.36 0.36 0.38 0.37 0.33 0.29 0.26 0.22 0.21 0.21 0.23 0.20 0.18 0.17 0.16 0.14 0.12 0.11 0.10 0.08 0.09 0.09 0.12 0.18 0.22 0.22 0.22 0.23 0.23
1.55 1.53 1.51 1.52 1.38 1.23 1.15 1.00 0.79 0.62 0.55 0.52 0.46 0.40 0.42 0.41 0.37 0.34 0.31 0.28 0.30 0.26 0.23 0.22 0.21 0.18 0.17 0.17 0.17 0.17 0.16 0.14 0.12 0.11 0.11 0.11 0.11 0.15 0.21 0.24 0.25 0.26 0.26
1.51 1.59 1.55 1.56 1.49 1.33 1.21 1.08 0.95 0.79 0.66 0.64 0.60 0.52 0.46 0.44 0.39 0.34 0.32 0.34 0.35 0.34 0.31 0.27 0.24 0.23 0.21 0.20 0.18 0.17 0.18 0.19 0.16 0.14 0.13 0.12 0.11 0.12 0.16 0.22 0.28 0.31 0.33
1.31 1.51 1.56 1.56 1.58 1.52 1.32 1.17 1.01 0.85 0.72 0.71 0.68 0.61 0.59 0.55 0.53 0.47 0.42 0.38 0.37 0.37 0.38 0.35 0.33 0.32 0.28 0.26 0.22 0.20 0.18 0.20 0.21 0.19 0.18 0.16 0.13 0.11 0.12 0.18 0.26 0.35 0.40
1.20 1.41 1.45 1.51 1.59 1.59 1.50 1.37 1.14 0.98 0.80 0.70 0.69 0.67 0.66 0.62 0.60 0.59 0.55 0.51 0.47 0.46 0.45 0.46 0.45 0.45 0.39 0.34 0.29 0.27 0.25 0.25 0.25 0.25 0.24 0.22 0.18 0.15 0.15 0.17 0.24 0.35 0.43
1.31 1.39 1.44 1.45 1.59 1.59 1.58 1.58 1.44 1.22 0.98 0.83 0.79 0.82 0.77 0.72 0.69 0.66 0.61 0.51 0.46 0.53 0.55 0.51 0.48 0.46 0.40 0.33 0.28 0.27 0.26 0.26 0.27 0.29 0.32 0.32 0.28 0.24 0.20 0.18 0.20 0.27 0.38
1.38 1.42 1.55 1.51 1.57 1.69 1.69 1.71 1.63 1.48 1.25 1.08 0.93 0.84 0.84 0.82 0.78 0.77 0.71 0.65 0.59 0.54 0.55 0.57 0.52 0.46 0.42 0.38 0.34 0.29 0.26 0.24 0.24 0.25 0.25 0.28 0.31 0.30 0.27 0.25 0.24 0.25 0.32
1.41 1.49 1.61 1.64 1.66 1.81 1.93 1.94 1.92 1.68 1.42 1.26 1.10 0.96 0.91 0.93 0.89 0.84 0.81 0.80 0.81 0.75 0.64 0.58 0.55 0.51 0.45 0.46 0.48 0.43 0.37 0.32 0.29 0.27 0.26 0.26 0.25 0.26 0.26 0.23 0.23 0.23 0.26
1.39 1.48 1.57 1.67 1.73 1.85 1.89 1.88 1.87 1.74 1.54 1.36 1.23 1.12 1.06 1.05 1.10 1.04 0.94 0.94 0.94 0.87 0.78 0.73 0.70 0.65 0.60 0.59 0.60 0.51 0.44 0.42 0.39 0.34 0.33 0.34 0.32 0.31 0.30 0.27 0.25 0.23 0.22
1.16 1.33 1.50 1.61 1.73 1.73 1.73 1.87 1.99 2.09 1.93 1.62 1.45 1.33 1.20 1.17 1.18 1.14 1.10 1.07 1.04 1.03 1.01 0.97 0.94 0.89 0.82 0.82 0.82 0.78 0.62 0.47 0.37 0.33 0.35 0.36 0.35 0.35 0.34 0.31 0.28 0.27 0.24
1.01 1.18 1.42 1.56 1.69 1.72 1.76 1.99 2.16 2.28 2.15 1.85 1.47 1.29 1.27 1.29 1.31 1.24 1.21 1.23 1.17 1.11 1.07 1.06 1.05 1.04 0.98 0.94 0.94 1.00 0.85 0.59 0.40 0.32 0.29 0.30 0.33 0.36 0.36 0.38 0.40 0.38 0.33
0.89 1.02 1.15 1.33 1.52 1.69 1.75 1.80 1.88 1.96 1.93 1.72 1.58 1.47 1.48 1.49 1.48 1.41 1.36 1.34 1.30 1.24 1.13 1.11 1.10 1.06 1.04 0.99 0.95 0.88 0.81 0.67 0.62 0.47 0.32 0.30 0.32 0.33 0.36 0.40 0.44 0.47 0.48
0.77 0.98 1.08 1.15 1.35 1.56 1.68 1.74 1.85 1.83 1.85 1.94 1.87 1.75 1.64 1.60 1.57 1.51 1.45 1.43 1.36 1.30 1.24 1.24 1.21 1.18 1.12 1.06 1.01 0.95 0.93 0.80 0.68 0.65 0.49 0.34 0.35 0.36 0.38 0.42 0.45 0.48 0.50
0.65 0.85 1.06 1.08 1.17 1.32 1.53 1.72 1.78 1.71 1.75 1.82 1.82 1.76 1.72 1.71 1.68 1.58 1.49 1.43 1.37 1.33 1.30 1.29 1.32 1.28 1.24 1.18 1.14 1.08 1.07 1.01 0.86 0.82 0.73 0.51 0.43 0.39 0.38 0.40 0.42 0.45 0.48